Regional Weather Roundup
Issued by NWS Raleigh/Durham, NC

Home | Current Version | Previous Version | Text Only | Print | Product List | Glossary On
Versions: 1 2 3 4 5 6 7 8 9 10 11 12 13 14 15 16 17 18 19 20 21 22 23 24 25 26 27 28 29 30 31 32 33 34 35 36 37 38 39 40 41 42 43 44 45 46 47 48 49 50
000
ASUS42 KRAH 270910
RWRRAH
NORTH CAROLINA WEATHER ROUNDUP
NATIONAL WEATHER SERVICE RALEIGH NC
500 AM EDT MON APR 27 2015

NOTE: "FAIR" INDICATES FEW OR NO CLOUDS BELOW 12,000 FEET WITH NO
SIGNIFICANT WEATHER AND/OR OBSTRUCTIONS TO VISIBILITY.

NCZ001-053-055-056-065-067-271000-
WESTERN NORTH CAROLINA

CITY           SKY/WX    TMP DP  RH WIND       PRES   REMARKS
ASHEVILLE      CLEAR     46  42  86 NW5       29.81R
JEFFERSON      CLOUDY    43  33  67 NW9G16    29.78R
MORGANTON      CLEAR     42  42 100 CALM      29.82F
HICKORY        CLEAR     47  44  90 CALM      29.78R FOG
RUTHERFORDTON  CLEAR     45  45 100 NW3       29.80R
MOUNT AIRY     CLEAR     46  40  82 N3        29.79S
BOONE          CLEAR     42  36  78 NW7       29.80S
$$

NCZ021-022-025-041-071-084-088-271000-
CENTRAL NORTH CAROLINA

CITY           SKY/WX    TMP DP  RH WIND       PRES   REMARKS
CHARLOTTE      PTCLDY    45  43  93 CALM      29.78S
GREENSBORO     CLEAR     42  40  92 W3        29.75F
WINSTON-SALEM  CLEAR     42  40  92 CALM      29.77F
RALEIGH-DURHAM PTCLDY    40  39  97 CALM      29.76F
FORT BRAGG     CLEAR     47  46  93 CALM      29.75S
FAYETTEVILLE   CLEAR     48  46  93 CALM      29.75F
BURLINGTON     CLEAR     43  42  97 W3        29.76S
LAURINBURG     FOG       47  45  93 CALM      29.77S VSB 1/4
$$

NCZ011-015-027-028-043-044-047-080-103-271000-
NORTHEASTERN NORTH CAROLINA

CITY           SKY/WX    TMP DP  RH WIND       PRES   REMARKS
ROCKY MT-WILSO CLEAR     44  42  93 CALM      29.75F
GREENVILLE     FOG       43  43 100 CALM      29.78R VSB 1/4
WASHINGTON       N/A     44  43  97 CALM      29.74F FOG
ELIZABETH CITY CLEAR     43  41  93 W5        29.74S
MANTEO         PTCLDY    41  37  88 N3        29.72F
CAPE HATTERAS  CLOUDY    52  39  61 N7        29.70F
$$

NCZ078-087-090-091-093-098-101-271000-
SOUTHEASTERN NORTH CAROLINA

CITY           SKY/WX    TMP DP  RH WIND       PRES   REMARKS
LUMBERTON      PTCLDY    49  47  93 CALM      29.76S
GOLDSBORO      CLEAR     46  46  99 CALM      29.73F
KINSTON        CLEAR     46  45  97 CALM      29.75F
KENANSVILLE    PTCLDY    46  46  98 CALM      29.75F
NEW BERN       MOCLDY    48  45  89 NW5       29.74F
CHERRY POINT   CLOUDY    50  46  86 NW8       29.74F
BEAUFORT       CLOUDY    52  48  86 N10       29.72F
JACKSONVILLE     N/A     50  47  89 NW7       29.74R
WILMINGTON     MOCLDY    49  47  93 N5        29.74R
$$




USA.gov is the U.S. government's official web portal to all federal, state and local government web resources and services.